SAS49K EGLL-EKCH

Flight info

Callsign SAS49K
Flight time 1h 29m
Altitude 37000
Route BPK Q295 PAAVO M604 GIVPO DCT VENAS DCT LARGA DCT SOPTO DCT DOREV DCT TESPI
Aircraft A320/M-SDE3FGHIJ1RWXYZ/ALB1

Departure

Time 2026-04-23 20:56
Airport London Heathrow Airport (EGLL)

Arrival

Time 2026-04-23 22:26
Airport Copenhagen Kastrup Airport (EKCH)
Time Latitude Longitude Altitude Speed Heading
2026-04-23 20:02 51.46827 -0.45182 58 ft 0 kts 360°
2026-04-23 20:05 51.46826 -0.45182 58 ft 0 kts 360°
2026-04-23 20:26 51.46825 -0.45182 85 ft 0 kts 360°
2026-04-23 20:39 51.46820 -0.45182 85 ft 4 kts 360°
2026-04-23 20:39 51.46792 -0.45182 87 ft 4 kts 360°
2026-04-23 20:39 51.46771 -0.45183 88 ft 4 kts 19°
2026-04-23 20:39 51.46754 -0.45206 88 ft 4 kts 78°
2026-04-23 20:40 51.46752 -0.45246 86 ft 4 kts 89°
2026-04-23 20:40 51.46752 -0.45274 85 ft 0 kts 88°
2026-04-23 20:44 51.46752 -0.45266 85 ft 2 kts 89°
2026-04-23 20:44 51.46752 -0.45235 87 ft 4 kts 89°
2026-04-23 20:44 51.46753 -0.45179 86 ft 6 kts 89°
2026-04-23 20:44 51.46751 -0.45100 85 ft 8 kts 100°
2026-04-23 20:45 51.46693 -0.45072 90 ft 11 kts 185°
2026-04-23 20:45 51.46665 -0.45159 87 ft 10 kts 268°
2026-04-23 20:45 51.46665 -0.45289 85 ft 14 kts 270°
2026-04-23 20:45 51.46665 -0.45461 83 ft 18 kts 271°
2026-04-23 20:46 51.46663 -0.45670 81 ft 18 kts 270°
2026-04-23 20:46 51.46661 -0.45857 81 ft 16 kts 269°
2026-04-23 20:46 51.46661 -0.46033 82 ft 15 kts 270°
2026-04-23 20:46 51.46660 -0.46198 87 ft 14 kts 270°
2026-04-23 20:47 51.46661 -0.46344 87 ft 12 kts 271°
2026-04-23 20:47 51.46660 -0.46476 88 ft 11 kts 269°
2026-04-23 20:47 51.46660 -0.46603 91 ft 11 kts 270°
2026-04-23 20:47 51.46661 -0.46731 89 ft 12 kts 270°
2026-04-23 20:48 51.46660 -0.46868 91 ft 13 kts 269°
2026-04-23 20:48 51.46659 -0.47022 90 ft 15 kts 268°
2026-04-23 20:48 51.46658 -0.47200 86 ft 17 kts 270°
2026-04-23 20:48 51.46658 -0.47406 83 ft 19 kts 270°
2026-04-23 20:49 51.46656 -0.47612 82 ft 17 kts 269°
2026-04-23 20:49 51.46655 -0.47796 81 ft 16 kts 269°
2026-04-23 20:49 51.46653 -0.47973 84 ft 15 kts 269°
2026-04-23 20:49 51.46653 -0.48135 86 ft 14 kts 270°
2026-04-23 20:50 51.46654 -0.48292 87 ft 14 kts 270°
2026-04-23 20:50 51.46652 -0.48457 88 ft 15 kts 270°
2026-04-23 20:50 51.46652 -0.48636 87 ft 13 kts 270°
2026-04-23 20:50 51.46632 -0.48752 86 ft 8 kts 212°
2026-04-23 20:51 51.46599 -0.48769 88 ft 0 kts 197°
2026-04-23 20:52 51.46598 -0.48769 88 ft 1 kts 197°
2026-04-23 20:52 51.46576 -0.48780 85 ft 5 kts 197°
2026-04-23 20:52 51.46529 -0.48785 85 ft 8 kts 173°
2026-04-23 20:53 51.46482 -0.48729 86 ft 9 kts 120°
2026-04-23 20:53 51.46478 -0.48625 86 ft 0 kts 89°
2026-04-23 20:55 51.46478 -0.48612 89 ft 5 kts 89°
2026-04-23 20:55 51.46478 -0.48280 88 ft 64 kts 90°
2026-04-23 20:55 51.46483 -0.47229 85 ft 121 kts 90°
2026-04-23 20:56 51.46486 -0.45634 115 ft 161 kts 90°
2026-04-23 20:56 51.46483 -0.43776 575 ft 172 kts 90°
2026-04-23 20:56 51.46569 -0.41734 969 ft 196 kts 72°
2026-04-23 20:56 51.47337 -0.39784 1429 ft 222 kts 52°
2026-04-23 20:57 51.48373 -0.37812 2082 ft 237 kts 53°
2026-04-23 20:57 51.49449 -0.35775 2994 ft 242 kts 53°
2026-04-23 20:57 51.50550 -0.33682 3867 ft 249 kts 53°
2026-04-23 20:57 51.51675 -0.31532 4743 ft 253 kts 54°
2026-04-23 20:58 51.52506 -0.29050 5578 ft 256 kts 72°
2026-04-23 20:58 51.53102 -0.26323 5917 ft 259 kts 72°
2026-04-23 20:58 51.53679 -0.23594 5998 ft 258 kts 73°
2026-04-23 20:58 51.54306 -0.20895 6005 ft 259 kts 63°
2026-04-23 20:59 51.55593 -0.18887 6011 ft 265 kts 29°
2026-04-23 20:59 51.57375 -0.18034 6047 ft 270 kts 15°
2026-04-23 20:59 51.59207 -0.17367 6050 ft 271 kts 12°
2026-04-23 20:59 51.61065 -0.16871 6057 ft 270 kts 14°
2026-04-23 21:00 51.62897 -0.16204 6059 ft 270 kts 17°
2026-04-23 21:00 51.64709 -0.15435 6063 ft 269 kts 19°
2026-04-23 21:00 51.66506 -0.14622 6065 ft 268 kts 19°
2026-04-23 21:00 51.68302 -0.13792 6065 ft 269 kts 19°
2026-04-23 21:01 51.70101 -0.12954 6067 ft 269 kts 19°
2026-04-23 21:01 51.71888 -0.12110 6063 ft 268 kts 22°
2026-04-23 21:01 51.73505 -0.10710 6058 ft 263 kts 42°
2026-04-23 21:01 51.74699 -0.08519 6094 ft 261 kts 62°
2026-04-23 21:02 51.75343 -0.05769 6890 ft 263 kts 79°
2026-04-23 21:02 51.75611 -0.02857 7798 ft 263 kts 82°
2026-04-23 21:02 51.75864 0.00090 8616 ft 267 kts 82°
2026-04-23 21:02 51.76118 0.03079 9439 ft 271 kts 82°
2026-04-23 21:03 51.76371 0.06100 10258 ft 274 kts 82°
2026-04-23 21:03 51.76629 0.09199 10792 ft 287 kts 82°
2026-04-23 21:03 51.76902 0.12522 11027 ft 309 kts 82°
2026-04-23 21:03 51.77186 0.16013 11569 ft 317 kts 83°
2026-04-23 21:04 51.77474 0.19564 12257 ft 321 kts 83°
2026-04-23 21:04 51.77767 0.23148 12973 ft 324 kts 83°
2026-04-23 21:04 51.78065 0.26767 13704 ft 326 kts 83°
2026-04-23 21:04 51.78363 0.30406 14408 ft 329 kts 83°
2026-04-23 21:05 51.78662 0.34086 15017 ft 332 kts 83°
2026-04-23 21:05 51.78961 0.37807 15599 ft 336 kts 83°
2026-04-23 21:05 51.79260 0.41573 16173 ft 340 kts 83°
2026-04-23 21:05 51.79561 0.45391 16741 ft 344 kts 84°
2026-04-23 21:06 51.79867 0.49251 17306 ft 349 kts 84°
2026-04-23 21:06 51.80174 0.53174 17800 ft 355 kts 84°
2026-04-23 21:06 51.80484 0.57164 18348 ft 360 kts 84°
2026-04-23 21:06 51.80798 0.61201 18868 ft 365 kts 84°
2026-04-23 21:07 51.81252 0.65259 19344 ft 371 kts 76°
2026-04-23 21:07 51.82150 0.69198 19870 ft 376 kts 69°
2026-04-23 21:07 51.83173 0.73105 20432 ft 379 kts 69°
2026-04-23 21:07 51.84200 0.77050 20966 ft 382 kts 69°
2026-04-23 21:08 51.85241 0.81032 21502 ft 386 kts 68°
2026-04-23 21:08 51.86561 0.84841 21999 ft 392 kts 58°
2026-04-23 21:08 51.88318 0.88257 22506 ft 399 kts 47°
2026-04-23 21:08 51.90389 0.91301 23013 ft 404 kts 44°
2026-04-23 21:09 51.92490 0.94339 23518 ft 407 kts 44°
2026-04-23 21:09 51.94609 0.97416 24022 ft 411 kts 45°
2026-04-23 21:09 51.96740 1.00522 24445 ft 413 kts 45°
2026-04-23 21:09 51.98883 1.03651 24861 ft 416 kts 45°
2026-04-23 21:10 52.01038 1.06809 25266 ft 419 kts 45°
2026-04-23 21:10 52.03209 1.09994 25653 ft 422 kts 45°
2026-04-23 21:10 52.05425 1.13157 26028 ft 427 kts 41°
2026-04-23 21:10 52.07809 1.16078 26392 ft 431 kts 40°
2026-04-23 21:11 52.10217 1.19010 26761 ft 434 kts 40°
2026-04-23 21:11 52.12638 1.21979 27121 ft 437 kts 41°
2026-04-23 21:11 52.15025 1.25060 27474 ft 439 kts 42°
2026-04-23 21:11 52.17383 1.28247 27823 ft 442 kts 43°
2026-04-23 21:12 52.19700 1.31461 28177 ft 445 kts 44°
2026-04-23 21:12 52.22057 1.34752 28519 ft 447 kts 44°
2026-04-23 21:12 52.24431 1.38057 28866 ft 450 kts 44°
2026-04-23 21:12 52.26833 1.41368 29206 ft 454 kts 44°
2026-04-23 21:13 52.29259 1.44687 29521 ft 457 kts 43°
2026-04-23 21:13 52.31710 1.48030 29856 ft 460 kts 43°
2026-04-23 21:13 52.34117 1.51481 30168 ft 460 kts 49°
2026-04-23 21:13 52.36361 1.55223 30503 ft 462 kts 49°
2026-04-23 21:14 52.38615 1.59001 30801 ft 465 kts 49°
2026-04-23 21:14 52.40877 1.62800 31084 ft 467 kts 49°
2026-04-23 21:14 52.42412 1.65383 31276 ft 468 kts 49°
2026-04-23 21:14 52.44683 1.69206 31658 ft 468 kts 49°
2026-04-23 21:15 52.46950 1.73028 32087 ft 467 kts 50°
2026-04-23 21:15 52.49207 1.76847 32504 ft 466 kts 50°
2026-04-23 21:15 52.51459 1.80664 32926 ft 465 kts 50°
2026-04-23 21:15 52.53679 1.84430 33300 ft 465 kts 50°
2026-04-23 21:16 52.55927 1.88247 33703 ft 464 kts 50°
2026-04-23 21:16 52.58170 1.92064 34112 ft 464 kts 50°
2026-04-23 21:16 52.60410 1.95879 34514 ft 463 kts 50°
2026-04-23 21:16 52.62645 1.99691 34866 ft 462 kts 50°
2026-04-23 21:17 52.64874 2.03499 35184 ft 462 kts 50°
2026-04-23 21:17 52.67126 2.07359 35521 ft 461 kts 50°
2026-04-23 21:17 52.69343 2.11165 35856 ft 460 kts 50°
2026-04-23 21:17 52.71524 2.14914 36172 ft 459 kts 50°
2026-04-23 21:18 52.73732 2.18708 36502 ft 458 kts 50°
2026-04-23 21:18 52.75933 2.22494 36799 ft 457 kts 50°
2026-04-23 21:18 52.78129 2.26282 37088 ft 456 kts 50°
2026-04-23 21:18 52.80320 2.30072 37371 ft 456 kts 50°
2026-04-23 21:19 52.84707 2.37691 37446 ft 458 kts 50°
2026-04-23 21:19 52.89102 2.45315 37437 ft 458 kts 50°
2026-04-23 21:20 52.93493 2.52962 37429 ft 458 kts 50°
2026-04-23 21:20 52.97991 2.60445 37447 ft 461 kts 41°
2026-04-23 21:21 53.03483 2.65979 37446 ft 465 kts 28°
2026-04-23 21:21 53.09275 2.70762 37446 ft 465 kts 28°
2026-04-23 21:22 53.15060 2.75568 37442 ft 465 kts 28°
2026-04-23 21:22 53.20845 2.80402 37443 ft 465 kts 28°
2026-04-23 21:23 53.26631 2.85251 37445 ft 465 kts 28°
2026-04-23 21:23 53.32454 2.90000 37439 ft 466 kts 26°
2026-04-23 21:24 53.38388 2.94389 37441 ft 466 kts 25°
2026-04-23 21:24 53.44339 2.98721 37436 ft 466 kts 25°
2026-04-23 21:25 53.50270 3.03157 37443 ft 467 kts 26°
2026-04-23 21:25 53.56188 3.07660 37442 ft 467 kts 26°
2026-04-23 21:26 53.62102 3.12175 37429 ft 467 kts 25°
2026-04-23 21:26 53.68009 3.16681 37445 ft 466 kts 25°
2026-04-23 21:27 53.73911 3.21196 37455 ft 465 kts 25°
2026-04-23 21:27 53.79803 3.25707 37454 ft 465 kts 25°
2026-04-23 21:28 53.85690 3.30238 37458 ft 464 kts 25°
2026-04-23 21:28 53.91567 3.34781 37459 ft 464 kts 25°
2026-04-23 21:29 53.97443 3.39328 37454 ft 464 kts 25°
2026-04-23 21:29 54.03323 3.43886 37453 ft 465 kts 25°
2026-04-23 21:30 54.09202 3.48471 37451 ft 465 kts 25°
2026-04-23 21:30 54.15089 3.53063 37454 ft 465 kts 25°
2026-04-23 21:31 54.20973 3.57673 37462 ft 466 kts 25°
2026-04-23 21:31 54.26855 3.62313 37454 ft 466 kts 25°
2026-04-23 21:32 54.32722 3.67012 37455 ft 465 kts 26°
2026-04-23 21:32 54.38444 3.72027 37454 ft 465 kts 28°
2026-04-23 21:33 54.44156 3.77248 37451 ft 465 kts 28°
2026-04-23 21:33 54.49907 3.82443 37453 ft 464 kts 27°
2026-04-23 21:34 54.55635 3.87550 37447 ft 463 kts 27°
2026-04-23 21:34 54.61347 3.92670 37446 ft 463 kts 27°
2026-04-23 21:35 54.67055 3.97812 37444 ft 462 kts 27°
2026-04-23 21:35 54.72720 4.02925 37444 ft 463 kts 27°
2026-04-23 21:36 54.81273 4.10699 37440 ft 463 kts 27°
2026-04-23 21:37 54.86750 4.16548 37427 ft 463 kts 40°
2026-04-23 21:37 54.91239 4.24505 37425 ft 462 kts 48°
2026-04-23 21:38 54.95582 4.32735 37423 ft 462 kts 48°
2026-04-23 21:38 54.99936 4.40980 37403 ft 462 kts 47°
2026-04-23 21:39 55.04281 4.49244 37409 ft 463 kts 48°
2026-04-23 21:39 55.08614 4.57543 37411 ft 462 kts 48°
2026-04-23 21:40 55.12941 4.65857 37407 ft 462 kts 48°
2026-04-23 21:40 55.17264 4.74178 37406 ft 462 kts 48°
2026-04-23 21:41 55.21585 4.82512 37402 ft 463 kts 47°
2026-04-23 21:41 55.25897 4.90890 37394 ft 463 kts 48°
2026-04-23 21:42 55.29629 5.00047 37389 ft 462 kts 65°
2026-04-23 21:42 55.31616 5.10678 37377 ft 458 kts 82°
2026-04-23 21:43 55.32694 5.21713 37377 ft 459 kts 82°
2026-04-23 21:43 55.33769 5.32765 37380 ft 459 kts 82°
2026-04-23 21:44 55.34834 5.43833 37383 ft 459 kts 82°
2026-04-23 21:44 55.35888 5.54911 37368 ft 460 kts 82°
2026-04-23 21:45 55.36931 5.66001 37358 ft 460 kts 82°
2026-04-23 21:45 55.37967 5.77123 37351 ft 461 kts 82°
2026-04-23 21:46 55.38996 5.88259 37357 ft 462 kts 82°
2026-04-23 21:46 55.40015 5.99428 37340 ft 463 kts 82°
2026-04-23 21:47 55.41023 6.10623 37339 ft 463 kts 82°
2026-04-23 21:47 55.42019 6.21835 37331 ft 464 kts 82°
2026-04-23 21:48 55.43011 6.33075 37323 ft 465 kts 82°
2026-04-23 21:48 55.43994 6.44347 37327 ft 466 kts 82°
2026-04-23 21:49 55.44969 6.55627 37319 ft 466 kts 82°
2026-04-23 21:49 55.45939 6.66923 37321 ft 466 kts 83°
2026-04-23 21:50 55.46896 6.78224 37308 ft 466 kts 82°
2026-04-23 21:50 55.47838 6.89550 37311 ft 467 kts 82°
2026-04-23 21:51 55.48772 7.00880 37297 ft 467 kts 82°
2026-04-23 21:51 55.49700 7.12231 37302 ft 468 kts 82°
2026-04-23 21:52 55.50616 7.23591 37299 ft 468 kts 82°
2026-04-23 21:52 55.51523 7.34965 37304 ft 468 kts 82°
2026-04-23 21:53 55.52421 7.46335 37301 ft 468 kts 82°
2026-04-23 21:53 55.53304 7.57708 37302 ft 467 kts 79°
2026-04-23 21:54 55.54768 7.68881 37291 ft 467 kts 76°
2026-04-23 21:54 55.56295 7.80035 37283 ft 467 kts 76°
2026-04-23 21:55 55.57806 7.91188 37284 ft 466 kts 76°
2026-04-23 21:55 55.59293 8.02339 37286 ft 466 kts 76°
2026-04-23 21:56 55.60761 8.13476 37275 ft 465 kts 76°
2026-04-23 21:56 55.62226 8.24612 37267 ft 464 kts 76°
2026-04-23 21:57 55.63679 8.35738 37257 ft 464 kts 76°
2026-04-23 21:57 55.65106 8.46799 37261 ft 464 kts 76°
2026-04-23 21:58 55.66538 8.57919 37250 ft 463 kts 76°
2026-04-23 21:58 55.67731 8.67225 37241 ft 462 kts 76°
2026-04-23 21:59 55.69148 8.78336 37211 ft 462 kts 76°
2026-04-23 21:59 55.69851 8.83896 36947 ft 461 kts 76°
2026-04-23 21:59 55.70547 8.89441 36677 ft 461 kts 76°
2026-04-23 22:00 55.71923 9.00542 36165 ft 461 kts 76°
2026-04-23 22:00 55.72606 9.06092 35906 ft 461 kts 76°
2026-04-23 22:00 55.73289 9.11635 35654 ft 459 kts 76°
2026-04-23 22:00 55.73968 9.17164 35404 ft 457 kts 76°
2026-04-23 22:01 55.74642 9.22665 35161 ft 455 kts 76°
2026-04-23 22:01 55.75311 9.28153 34916 ft 453 kts 76°
2026-04-23 22:01 55.75973 9.33610 34674 ft 451 kts 76°
2026-04-23 22:01 55.76629 9.39046 34443 ft 449 kts 76°
2026-04-23 22:02 55.77279 9.44451 34070 ft 446 kts 76°
2026-04-23 22:02 55.77916 9.49746 33541 ft 443 kts 76°
2026-04-23 22:02 55.78563 9.55152 33050 ft 440 kts 76°
2026-04-23 22:02 55.79192 9.60444 32563 ft 437 kts 75°
2026-04-23 22:03 55.79818 9.65717 32058 ft 435 kts 75°
2026-04-23 22:03 55.80429 9.70890 31588 ft 432 kts 75°
2026-04-23 22:03 55.81043 9.76105 31096 ft 430 kts 75°
2026-04-23 22:03 55.81653 9.81293 30628 ft 428 kts 75°
2026-04-23 22:04 55.82264 9.86519 30136 ft 425 kts 76°
2026-04-23 22:04 55.82862 9.91655 29644 ft 422 kts 76°
2026-04-23 22:04 55.83443 9.96671 29205 ft 418 kts 76°
2026-04-23 22:04 55.84027 10.01706 28765 ft 414 kts 76°
2026-04-23 22:05 55.84604 10.06712 28345 ft 411 kts 76°
2026-04-23 22:05 55.85172 10.11676 27917 ft 408 kts 76°
2026-04-23 22:05 55.85736 10.16613 27500 ft 406 kts 76°
2026-04-23 22:05 55.86294 10.21524 27089 ft 404 kts 75°
2026-04-23 22:06 55.86844 10.26410 26662 ft 402 kts 75°
2026-04-23 22:06 55.87393 10.31278 26251 ft 400 kts 75°
2026-04-23 22:06 55.87937 10.36131 25810 ft 399 kts 75°
2026-04-23 22:06 55.88478 10.40975 25382 ft 399 kts 76°
2026-04-23 22:07 55.89016 10.45814 24945 ft 398 kts 76°
2026-04-23 22:07 55.89486 10.50676 24493 ft 400 kts 82°
2026-04-23 22:07 55.89463 10.55637 24050 ft 403 kts 94°
2026-04-23 22:07 55.88941 10.60550 23552 ft 404 kts 100°
2026-04-23 22:08 55.88344 10.65430 23146 ft 400 kts 100°
2026-04-23 22:08 55.87755 10.70269 22687 ft 398 kts 99°
2026-04-23 22:08 55.87170 10.75082 22168 ft 397 kts 99°
2026-04-23 22:08 55.86589 10.79848 21704 ft 394 kts 99°
2026-04-23 22:09 55.86004 10.84588 21337 ft 389 kts 99°
2026-04-23 22:09 55.85421 10.89295 20838 ft 387 kts 99°
2026-04-23 22:09 55.84842 10.93955 20336 ft 386 kts 99°
2026-04-23 22:09 55.84220 10.98569 19922 ft 382 kts 101°
2026-04-23 22:10 55.83556 11.03135 19507 ft 379 kts 101°
2026-04-23 22:10 55.82870 11.07662 19058 ft 377 kts 102°
2026-04-23 22:10 55.82182 11.12156 18589 ft 376 kts 101°
2026-04-23 22:10 55.81501 11.16609 18093 ft 374 kts 101°
2026-04-23 22:11 55.80829 11.21040 17666 ft 369 kts 101°
2026-04-23 22:11 55.80169 11.25439 17211 ft 367 kts 101°
2026-04-23 22:11 55.79518 11.29792 16797 ft 363 kts 101°
2026-04-23 22:11 55.78872 11.34113 16352 ft 360 kts 101°
2026-04-23 22:12 55.78231 11.38398 15979 ft 356 kts 101°
2026-04-23 22:12 55.77601 11.42580 15849 ft 345 kts 100°
2026-04-23 22:12 55.77179 11.46687 15607 ft 335 kts 93°
2026-04-23 22:12 55.76867 11.50765 15265 ft 332 kts 94°
2026-04-23 22:13 55.76552 11.54815 14896 ft 331 kts 94°
2026-04-23 22:13 55.76233 11.58850 14534 ft 329 kts 94°
2026-04-23 22:13 55.75913 11.62871 14177 ft 328 kts 94°
2026-04-23 22:13 55.75592 11.66879 13808 ft 327 kts 94°
2026-04-23 22:14 55.75272 11.70867 13423 ft 326 kts 94°
2026-04-23 22:14 55.74952 11.74837 13054 ft 324 kts 94°
2026-04-23 22:14 55.74633 11.78784 12685 ft 322 kts 94°
2026-04-23 22:14 55.74314 11.82707 12323 ft 320 kts 94°
2026-04-23 22:15 55.73995 11.86608 11986 ft 319 kts 94°
2026-04-23 22:15 55.73675 11.90485 11628 ft 317 kts 94°
2026-04-23 22:15 55.73358 11.94340 11279 ft 315 kts 94°
2026-04-23 22:15 55.73042 11.98175 10946 ft 313 kts 93°
2026-04-23 22:16 55.72728 12.01990 10611 ft 311 kts 93°
2026-04-23 22:16 55.72412 12.05778 10285 ft 310 kts 93°
2026-04-23 22:16 55.72097 12.09541 9956 ft 308 kts 93°
2026-04-23 22:16 55.71781 12.13288 9605 ft 306 kts 94°
2026-04-23 22:17 55.71468 12.17001 9266 ft 304 kts 94°
2026-04-23 22:17 55.71070 12.20673 8936 ft 305 kts 103°
2026-04-23 22:17 55.70180 12.24094 8598 ft 308 kts 120°
2026-04-23 22:17 55.68791 12.26991 8257 ft 310 kts 136°
2026-04-23 22:18 55.67158 12.29474 7894 ft 309 kts 137°
2026-04-23 22:18 55.65523 12.31940 7556 ft 308 kts 137°
2026-04-23 22:18 55.63899 12.34389 7233 ft 305 kts 137°
2026-04-23 22:18 55.62223 12.36674 6922 ft 305 kts 149°
2026-04-23 22:19 55.60229 12.37873 6636 ft 303 kts 173°
2026-04-23 22:19 55.58155 12.37677 6297 ft 296 kts 196°
2026-04-23 22:19 55.56320 12.36228 5850 ft 282 kts 216°
2026-04-23 22:19 55.54715 12.34461 5692 ft 264 kts 212°
2026-04-23 22:20 55.53003 12.33461 5264 ft 260 kts 185°
2026-04-23 22:20 55.51240 12.33830 4814 ft 254 kts 159°
2026-04-23 22:20 55.49718 12.35317 4307 ft 249 kts 140°
2026-04-23 22:20 55.48522 12.37472 3743 ft 246 kts 123°
2026-04-23 22:21 55.47812 12.40172 3154 ft 240 kts 93°
2026-04-23 22:21 55.48087 12.42845 2995 ft 211 kts 54°
2026-04-23 22:21 55.49047 12.44661 2807 ft 201 kts 39°
2026-04-23 22:21 55.50101 12.46313 2452 ft 203 kts 38°
2026-04-23 22:22 55.51163 12.47949 2141 ft 198 kts 38°
2026-04-23 22:22 55.52165 12.49490 1899 ft 184 kts 38°
2026-04-23 22:22 55.53077 12.50894 1652 ft 166 kts 38°
2026-04-23 22:22 55.53903 12.52166 1422 ft 151 kts 37°
2026-04-23 22:23 55.54675 12.53352 1226 ft 144 kts 37°
2026-04-23 22:23 55.55427 12.54509 1030 ft 142 kts 37°
2026-04-23 22:23 55.56176 12.55660 835 ft 144 kts 38°
2026-04-23 22:23 55.56936 12.56830 651 ft 145 kts 38°
2026-04-23 22:24 55.57701 12.58009 454 ft 147 kts 39°
2026-04-23 22:24 55.58470 12.59196 262 ft 147 kts 40°
2026-04-23 22:24 55.59244 12.60390 72 ft 148 kts 40°
2026-04-23 22:24 55.59968 12.61498 25 ft 119 kts 42°
2026-04-23 22:25 55.60462 12.62266 25 ft 70 kts 41°
2026-04-23 22:25 55.60760 12.62725 29 ft 54 kts 41°
2026-04-23 22:25 55.61037 12.63156 27 ft 52 kts 42°
2026-04-23 22:25 55.61304 12.63568 26 ft 50 kts 41°
2026-04-23 22:26 55.61519 12.63907 28 ft 32 kts 41°
2026-04-23 22:26 55.61645 12.64176 30 ft 27 kts 78°
2026-04-23 22:26 55.61656 12.64456 24 ft 12 kts 85°
2026-04-23 22:26 55.61658 12.64483 24 ft 0 kts 85°
2026-04-23 22:29 55.61659 12.64520 24 ft 6 kts 86°
2026-04-23 22:29 55.61697 12.64588 24 ft 11 kts 32°
2026-04-23 22:29 55.61781 12.64687 24 ft 17 kts 33°
2026-04-23 22:30 55.61887 12.64807 24 ft 19 kts 33°
2026-04-23 22:30 55.62002 12.64939 26 ft 20 kts 32°
2026-04-23 22:30 55.62116 12.65070 26 ft 18 kts 34°
2026-04-23 22:30 55.62208 12.65174 26 ft 15 kts 30°
2026-04-23 22:31 55.62303 12.65199 24 ft 13 kts
2026-04-23 22:31 55.62399 12.65201 25 ft 15 kts 359°
2026-04-23 22:31 55.62503 12.65185 27 ft 16 kts 357°
2026-04-23 22:31 55.62589 12.65180 25 ft 10 kts 358°
2026-04-23 22:32 55.62633 12.65184 24 ft 6 kts
2026-04-23 22:32 55.62676 12.65187 26 ft 6 kts 341°
2026-04-23 22:32 55.62691 12.65121 27 ft 6 kts 288°
2026-04-23 22:32 55.62696 12.65097 24 ft 2 kts 290°
2026-04-23 22:33 55.62699 12.65082 24 ft 0 kts 290°
2026-04-23 22:33 55.62701 12.65074 24 ft 0 kts 290°